EUTELSAT HOTBIRD 13B

Last updated on Tue Jan 06 2026 00:02:50 GMT+0000 (Coordinated Universal Time)

1 29270U 06032A 26005.60735931 .00000154 00000+0 00000+0 0 9996 2 29270 1.2428 84.1416 0003553 207.4613 65.3377 1.00274027 45678
UTC large
Height (km)
Speed (km/s)
/
Latitude / Longitude
Inclination (degrees)
Orbital Period (minutes)
Azimuth
Elevation
Range (km)
Doppler Factor

Next 0 passes for location: London (51.5072 / 0.1276)

Sorry there are no passes over London.
EUTELSAT HOTBIRD 13B